Regional Weather Roundup
Issued by NWS Wilmington, NC

Home | Current Version | Previous Version | Text Only | Print | Product List | Glossary On
Versions: 1 2 3 4 5 6 7 8 9 10 11 12 13 14 15 16 17 18 19 20 21 22 23 24 25 26 27 28 29 30 31 32 33 34 35 36 37 38 39 40 41 42 43 44 45 46 47 48 49 50
000
ASUS42 KILM 290610
RWRILM
RWRILM
REGIONAL HOURLY WEATHER ROUNDUP
NATIONAL WEATHER SERVICE WILMINGTON NC
100 AM EST MON DEC 29 2014

NOTE: "FAIR" INDICATES FEW OR NO CLOUDS BELOW 12,000 FEET WITH NO
SIGNIFICANT WEATHER AND/OR OBSTRUCTIONS TO VISIBILITY.

...............WFO WILMINGTON COUNTY WARNING AREA...............

......COASTAL NC AND SC COUNTIES......

CITY           SKY/WX    TMP DP  RH WIND       PRES   REMARKS
WILMINGTON     CLOUDY    60  59  96 CALM      30.05F
SOUTHPORT      MOCLDY    58  57  97 CALM      30.05F
N MYRTLE BEACH CLOUDY    59  57  93 CALM      30.04F
MYRTLE BEACH   CLOUDY    61  57  88 CALM      30.05F

......INLAND NC AND SC COUNTIES.......

CITY           SKY/WX    TMP DP  RH WIND       PRES   REMARKS
LUMBERTON      CLOUDY    60  59  96 CALM      30.04F FOG
ELIZABETHTOWN  CLOUDY    62  61  95 CALM      30.05F
WHITEVILLE     CLOUDY    60  58  94 CALM      30.04F
FLORENCE       CLOUDY    62  58  86 NW3       30.05F
DARLINGTON     CLOUDY    59  55  88 CALM      30.05F

....................REST OF NORTH CAROLINA......................

.........EASTERN NC.........

CITY           SKY/WX    TMP DP  RH WIND       PRES   REMARKS
CAPE HATTERAS  CLOUDY    58  57  97 CALM      30.04F
JACKSONVILLE   CLOUDY    61  57  88 CALM      30.06F VSB 1
MOREHEAD CITY  CLOUDY    58  58 100 CALM      30.05F
KENANSVILLE    FOG       60  59  97 CALM      30.07S VSB 1
NEW BERN       CLOUDY    62  58  86 CALM      30.06F
ELIZABETH CITY CLOUDY    61  56  83 CALM      30.04S

.........CENTRAL NC.........

CITY           SKY/WX    TMP DP  RH WIND       PRES   REMARKS
RALEIGH DURHAM FOG       55  53  93 CALM      30.05F VSB 1/8
ROCKY MOUNT    FOG       53  52  96 CALM      30.05F VSB 1/4
ROANOKE RAPIDS NOT AVBL
FAYETTEVILLE   CLOUDY    59  58  96 CALM      30.04F FOG
HOFFMAN        FOG       55  55 100 N2        30.05F VSB 3/8

.........WESTERN NC.........

CITY           SKY/WX    TMP DP  RH WIND       PRES   REMARKS
CHARLOTTE      FOG       55  54  96 N3        30.05S VSB 1/2
GREENSBORO     CLOUDY    49  49 100 CALM      30.05F FOG
HICKORY        NOT AVBL
BOONE          NOT AVBL
ASHEVILLE      NOT AVBL

.....................REST OF SOUTH CAROLINA.....................

.........EASTERN SC.........

CITY           SKY/WX    TMP DP  RH WIND       PRES   REMARKS
CHARLESTON     PTCLDY    59  59 100 CALM      30.05S FOG
BEAUFORT MCAS  CLEAR     59  58  96 CALM      30.04F
HILTON HEAD    CLEAR     61  61 100 S5        30.06F FOG

.........CENTRAL SC.........

CITY           SKY/WX    TMP DP  RH WIND       PRES   REMARKS
COLUMBIA       CLOUDY    58  57  97 CALM      30.02F FOG
ORANGEBURG     CLOUDY    61  59  93 CALM      30.04S
SUMTER SHAW    CLOUDY    58  57  96 S1        30.02F

.........WESTERN SC.........

CITY           SKY/WX    TMP DP  RH WIND       PRES   REMARKS
GREENVILLE     NOT AVBL
ROCK HILL      LGT RAIN  55  55 100 NE3       30.03F FOG
ANDERSON       CLOUDY    56  55  97 CALM      30.03F FOG
CLEMSON        NOT AVBL
GREENWOOD      CLOUDY    57  56  96 CALM      30.05S FOG


...................COASTAL AND OFFSHORE REPORTS..................

................LOCAL PIERS AND NC RESERVE................


STATION/POSITION TIME  SKY/WX   TEMP    WIND        PRES    VSBY
                                AIR SEA DIR/SP/G
                 (UTC)          (F)     (DEG/KT/KT) (MB)    (MI)
JOHNY MRCER PIER 0600            62 56  310/  3/  4 1016.9S
NC RESRV MASNBRO 0500            59     160/  1     1018.0S
OCEAN CREST PIER 0600            58 56  240/  3/  3 1016.9F
SPRINGMAID  PIER 0600            57 53   CALM  /  1 1017.2F


................COASTAL AND OFFSHORE BUOYS................


STATION/POSITION TIME  SKY/WX   TEMP    WIND        PRES    VSBY
                                AIR SEA DIR/SP/G
                 (UTC)          (F)     (DEG/KT/KT) (MB)    (MI)
DIMNDSHOAL 41025 0600            64                 1017.5F
WVE H/P(F/S)=  3/13

CAPE LOOKOUT     0500            60     240/  5/  6 1017.5F
ONSLOW BAY 41036 0600            61 60  260/  8/  8 1018.0F
WVE H/P(F/S)=  3/13 WND WVE H/P(F/S)=  2/ 4 SWL H/P/D(F/S/D)=  2/110/13

5 WRITEBCH 41038 NOT AVBL
MASONBORO  41110 0600               54                N/A
WVE H/P(F/S)=  2/14 WND WVE H/P(F/S)=  2/ 5 SWL H/P/D(F/S/D)=  2/100/14

WILM HARBR 41108 0600               60                N/A
WVE H/P(F/S)=  3/13 WND WVE H/P(F/S)=  2/ 4 SWL H/P/D(F/S/D)=  2/120/13

27WRITEBCH 41037 0500            58 59  260/ 10/ 12 1019.3F
FRYING PAN 41013 0600            67 68  250/  8/ 10 1018.2F
WVE H/P(F/S)=  3/14 WND WVE H/P(F/S)=  2/ 4 SWL H/P/D(F/S/D)=  2/ 90/14

SUNST NRSH 41024 0500            56      CALM  /  4   N/A
CAPRS NRSH 41029 0500            58     270/  4/  6   N/A
EDISTO     41004 0600            73 73  210/ 14/ 16 1017.0F
WVE H/P(F/S)=  3/14 WND WVE H/P(F/S)=  2/ 3 SWL H/P/D(F/S/D)=  2/14



..........OFFSHORE BUOYS BEYOND 100 NM OFFSHORE...........
.....IN A TRIANGLE---HAT TO BERMUDA TO BAHAMAS TO HAT.....


STATION/POSITION TIME  SKY/WX   TEMP    WIND        PRES    VSBY
                                AIR SEA DIR/SP/G
                 (UTC)          (F)     (DEG/KT/KT) (MB)    (MI)
150E HAT   41001 NOT AVBL
W BERMUDA  41048 0451            72 73  220/ 14/ 16 1021.4
WVE H/P(F/S)=  4/11 WND WVE H/P(F/S)=  3/ 5 SWL H/P/D(F/S/D)=  3/ 80/11

ATLANTIC S 41049 0453            74 76  100/ 12/ 14 1023.2
WVE H/P(F/S)=  6/12 WND WVE H/P(F/S)=  3/ 5 SWL H/P/D(F/S/D)=  5/ 50/12

E BAHAMAS  41046 0528            77 78   90/ 14/ 17 1020.4F
WVE H/P(F/S)=  7/13 WND WVE H/P(F/S)=  3/ 5 SWL H/P/D(F/S/D)=  7/ 20/13

NE BAHAMAS 41047 0518            75 78  140/ 14/ 17 1022.2F
WVE H/P(F/S)=  5/12 WND WVE H/P(F/S)=  3/ 6 SWL H/P/D(F/S/D)=  5/ 70/12

120E CANVRL41010 0600            76 77  190/  8/ 10 1020.4F
WVE H/P(F/S)=  4/14 SWL H/P/D(F/S/D)=  3/ 50/14


END


USA.gov is the U.S. government's official web portal to all federal, state and local government web resources and services.